[[{"header":{"parameterUnit":"m.s-1","parameterCategory":1,"la1":30.2991,"la2":30.254,"lo1":-89.0895,"lo2":-89.0444,"dy":0.0017,"dx":0.0017,"nx":28,"ny":28,"refTime":"2024-03-16T21:00:00:Z","depth":0,"parameterNumber":2,"parameterNumberName":"U-component_of_WINDS"},"data":[0,0,0,0,0,0,0,0,0,0,0,0,0,0,0,0,0,0,0,0,0,0,0,0,0,0,0,0,0,0,0,0,0,0,0,0,0,0,0,0,0,0,0,0,0,0,0,0,0,0,0,0,0,0,0,0,0,0,1.4278,1.4278,0,1.4316,1.4316,1.4317,1.4314,1.4313,1.4312,1.4312,1.4351,1.4352,1.4354,0,0,0,0,0,0,0,0,0,0,0,0,0,1.4202,1.4203,1.4277,1.4278,1.4278,1.4316,1.4316,1.4317,1.4314,1.4313,1.4312,1.4312,1.435,1.4352,1.4354,0,0,0,0,0,0,0,0,0,0,0,0,0,1.4237,1.4204,1.4277,1.4281,1.4282,1.4316,1.4316,1.4317,1.4314,1.4313,1.4312,1.4311,1.4349,1.4352,1.4354,1.4386,0,0,1.4361,1.4362,0,0,0,0,0,0,0,0,1.4235,1.424,1.428,1.4281,1.4282,1.4309,1.4304,1.434,1.4314,1.4302,1.4312,1.4311,1.4337,1.4341,1.435,1.4388,1.4389,1.4361,1.4363,1.4364,1.4365,0,0,0,0,0,0,0,1.4233,1.4238,1.4293,1.4281,1.4282,1.4281,1.4285,1.4311,1.4324,1.4303,1.4303,1.4307,1.4338,1.4348,1.4351,1.439,1.4361,1.4363,1.4365,1.4366,1.4458,1.4459,0,0,0,0,0,0,1.4229,1.4236,1.4291,1.4294,1.4256,1.4284,1.4288,1.4301,1.4324,1.4326,1.4308,1.4307,1.4344,1.4348,1.4352,1.4392,1.4364,1.4366,1.4367,1.4457,1.4458,1.4459,0,0,0,0,0,0,1.4228,1.4234,1.429,1.4265,1.4272,1.4286,1.4301,1.4302,1.4312,1.4328,1.433,1.4316,1.4343,1.4349,1.4378,1.4393,1.4367,1.4369,1.4456,1.4457,1.4459,1.4471,0,0,0,0,0,0,1.4225,1.4234,1.4246,1.4265,1.4273,1.4315,1.4302,1.4304,1.4316,1.4315,1.4335,1.4338,1.4343,1.4375,1.438,1.4396,1.4371,1.4454,1.4456,1.4458,1.447,1.4473,1.4476,0,0,0,0,0,1.4223,1.4247,1.4246,1.4253,1.4289,1.4316,1.432,1.4326,1.4318,1.433,1.434,1.4337,1.4391,1.4378,1.4384,1.4401,1.4453,1.4456,1.4458,1.4468,1.4472,1.4476,0,0,0,0,0,0,1.4228,1.425,1.4249,1.428,1.4296,1.4315,1.4331,1.433,1.4349,1.4347,1.4354,1.4358,1.4388,1.4397,1.4382,1.4434,1.4421,1.4425,1.4426,1.4431,1.4434,1.4431,1.4373,0,0,0,0,0,1.4233,1.4254,1.4271,1.4297,1.4306,1.4317,1.4329,1.4332,1.4349,1.4356,1.4368,1.4384,1.4405,1.4418,1.4438,1.4471,1.4476,1.4486,1.4489,1.4492,1.4495,1.4514,1.4519,1.4467,1.4467,1.4467,0,0,1.4244,1.4258,1.427,1.4299,1.4312,1.4333,1.4323,1.4345,1.4361,1.4359,1.4388,1.4397,1.4416,1.4448,1.4462,1.4457,1.4511,1.4495,1.4497,1.4498,1.4517,1.4522,1.4527,1.4468,1.4468,1.4468,0,0,1.4273,1.4286,1.431,1.4323,1.4343,1.4351,1.4356,1.4376,1.4382,1.4411,1.4411,1.443,1.4465,1.4479,1.449,1.4527,1.4526,1.4534,1.4551,1.457,1.4574,1.4577,1.4591,1.4596,1.4537,1.4537,1.4537,0,1.4284,1.4316,1.4322,1.4345,1.4358,1.4358,1.4383,1.4395,1.442,1.443,1.4423,1.4468,1.448,1.4516,1.4525,1.4534,1.4542,1.4531,1.4573,1.4576,1.458,1.4593,1.4599,1.4538,1.4538,1.4537,1.4537,0,1.4328,1.435,1.4367,1.4392,1.4407,1.4431,1.4441,1.4456,1.4458,1.4467,1.4497,1.4512,1.4536,1.4544,1.4546,1.4581,1.4577,1.4571,1.4559,1.4586,1.4599,1.4604,1.4539,1.4539,1.4538,1.4538,0,0,1.4361,1.4391,1.4397,1.4409,1.4431,1.4449,1.4473,1.4497,1.4509,1.4527,1.4548,1.4578,1.4574,1.4587,1.4591,1.4608,1.4638,1.46,1.4601,1.4607,1.4678,1.4682,1.4688,1.4637,1.4638,1.4638,1.4676,0,1.4394,1.4437,1.4444,1.4482,1.4503,1.4504,1.4525,1.4542,1.4551,1.4571,1.458,1.4602,1.4594,1.4603,1.4619,1.463,1.4652,1.4628,1.4657,1.4658,1.4652,1.4694,1.4699,1.4734,1.4681,1.4682,1.4683,0,1.4437,1.4457,1.4497,1.4519,1.4528,1.4547,1.457,1.4588,1.4607,1.4613,1.4628,1.4631,1.4657,1.4643,1.4679,1.4663,1.4675,1.4683,1.4684,1.4687,1.4672,1.4699,1.4745,1.475,1.469,1.469,1.4689,0,1.4459,1.4496,1.4525,1.4535,1.456,1.4573,1.4584,1.4603,1.4617,1.4637,1.4646,1.4669,1.4682,1.4699,1.4708,1.4697,1.4744,1.4731,1.475,1.475,1.476,1.4759,1.4808,1.4767,1.4767,1.4767,1.4767,0,1.4495,1.452,1.4535,1.4553,1.4581,1.4589,1.4617,1.4628,1.4644,1.4665,1.4667,1.4686,1.4696,1.4717,1.4724,1.4754,1.4759,1.4765,1.4766,1.4765,1.4764,1.4773,1.4771,1.4768,1.4768,1.4768,1.4767,0,1.4524,1.4535,1.4567,1.4588,1.4594,1.4614,1.4633,1.4651,1.466,1.4686,1.4693,1.4708,1.4733,1.4743,1.4773,1.4778,1.4813,1.4812,1.4806,1.4807,1.4826,1.4824,1.4883,1.4891,1.4844,1.4844,1.4844,0,1.4546,1.4565,1.4589,1.4603,1.4615,1.4637,1.4652,1.4661,1.4677,1.4701,1.4716,1.4741,1.4762,1.4802,1.4815,1.4839,1.4839,1.4859,1.4843,1.4841,1.4841,1.484,1.4842,1.4861,1.4862,1.4862,1.4863,0,1.4585,1.459,1.4611,1.4635,1.4653,1.4672,1.469,1.4702,1.4714,1.4731,1.4757,1.4773,1.4805,1.483,1.4855,1.4866,1.4867,1.4867,1.4873,1.4872,1.4868,1.4872,1.4815,1.4866,1.4866,1.4865,1.4865,1.4865,1.4612,1.4629,1.4649,1.4673,1.4689,1.4706,1.4725,1.4737,1.4759,1.4785,1.4789,1.4817,1.4837,1.4871,1.4884,1.4906,1.4901,1.4909,1.4911,1.4913,1.4915,1.4865,1.491,1.491,1.491,1.491,1.491,0,1.4651,1.4665,1.4687,1.4713,1.4732,1.4732,1.4753,1.4769,1.4793,1.4812,1.4833,1.4863,1.4888,1.4904,1.4929,1.4944,1.4945,1.495,1.495,1.4953,1.4917,1.491,1.4949,1.4949,1.4949,1.4949,1.4949,1.4949,1.4674,1.4705,1.4712,1.4751,1.4764,1.4791,1.4803,1.482,1.4835,1.4869,1.489,1.49,1.4919,1.4945,1.4968,1.4973,1.4982,1.4988,1.4992,1.4959,1.4955,1.4951,1.4944,1.499,1.499,1.5025,1.5026,1.5026]},{"header":{"parameterUnit":"m.s-1","parameterCategory":1,"la1":30.2991,"la2":30.254,"lo1":-89.0895,"lo2":-89.0444,"dy":0.0017,"dx":0.0017,"nx":28,"ny":28,"refTime":"2024-03-16T21:00:00:Z","depth":0,"parameterNumber":3,"parameterNumberName":"V-component_of_WINDS"},"data":[0,0,0,0,0,0,0,0,0,0,0,0,0,0,0,0,0,0,0,0,0,0,0,0,0,0,0,0,0,0,0,0,0,0,0,0,0,0,0,0,0,0,0,0,0,0,0,0,0,0,0,0,0,0,0,0,0,0,-3.2505,-3.2504,0,-3.2413,-3.2411,-3.241,-3.2354,-3.2353,-3.2353,-3.2353,-3.2253,-3.2251,-3.2248,0,0,0,0,0,0,0,0,0,0,0,0,0,-3.263,-3.2628,-3.2505,-3.2504,-3.2503,-3.2413,-3.2411,-3.241,-3.2354,-3.2353,-3.2353,-3.2353,-3.2254,-3.2251,-3.2248,0,0,0,0,0,0,0,0,0,0,0,0,0,-3.256,-3.2627,-3.2505,-3.2464,-3.2459,-3.2413,-3.2411,-3.241,-3.2354,-3.2353,-3.2353,-3.2352,-3.2255,-3.2251,-3.2248,-3.2234,0,0,-3.2237,-3.2235,0,0,0,0,0,0,0,0,-3.2564,-3.2556,-3.2471,-3.2467,-3.2461,-3.2394,-3.2419,-3.2351,-3.2354,-3.2394,-3.2353,-3.2352,-3.23,-3.2293,-3.2276,-3.2229,-3.2225,-3.2236,-3.2234,-3.2233,-3.2232,0,0,0,0,0,0,0,-3.2569,-3.2559,-3.2468,-3.247,-3.2464,-3.2449,-3.2438,-3.2405,-3.235,-3.239,-3.2386,-3.2376,-3.2297,-3.228,-3.2273,-3.2223,-3.2236,-3.2233,-3.2231,-3.223,-3.2162,-3.2162,0,0,0,0,0,0,-3.2581,-3.2564,-3.2471,-3.2466,-3.2513,-3.2447,-3.2435,-3.2416,-3.235,-3.234,-3.2376,-3.2374,-3.2286,-3.2278,-3.227,-3.225,-3.2233,-3.2229,-3.2227,-3.2161,-3.2162,-3.2162,0,0,0,0,0,0,-3.2584,-3.2573,-3.2475,-3.2513,-3.25,-3.2445,-3.2424,-3.2415,-3.2397,-3.234,-3.2329,-3.2369,-3.2285,-3.2275,-3.2244,-3.2246,-3.2228,-3.2224,-3.2161,-3.2161,-3.2162,-3.221,0,0,0,0,0,0,-3.2588,-3.2575,-3.257,-3.2514,-3.2498,-3.2452,-3.2424,-3.2413,-3.2392,-3.2387,-3.233,-3.232,-3.2284,-3.2249,-3.224,-3.224,-3.2222,-3.216,-3.2161,-3.2162,-3.2208,-3.2212,-3.2216,0,0,0,0,0,-3.2592,-3.2586,-3.257,-3.2559,-3.2491,-3.2452,-3.2443,-3.2403,-3.2392,-3.2386,-3.235,-3.2322,-3.2247,-3.2247,-3.2236,-3.2235,-3.216,-3.2161,-3.2162,-3.2207,-3.2212,-3.2216,0,0,0,0,0,0,-3.2641,-3.2577,-3.2559,-3.2534,-3.25,-3.2443,-3.2434,-3.241,-3.2376,-3.2373,-3.2323,-3.2311,-3.2285,-3.2256,-3.2257,-3.2219,-3.22,-3.2199,-3.2238,-3.2243,-3.2246,-3.2254,-3.2219,0,0,0,0,0,-3.2649,-3.2625,-3.257,-3.2553,-3.2537,-3.2489,-3.247,-3.2443,-3.2404,-3.2388,-3.235,-3.2312,-3.228,-3.2259,-3.2227,-3.2204,-3.2191,-3.2198,-3.2202,-3.2205,-3.2205,-3.2191,-3.2194,-3.2165,-3.2165,-3.2165,0,0,-3.2665,-3.2627,-3.2614,-3.2562,-3.2532,-3.2507,-3.2476,-3.2451,-3.2431,-3.2384,-3.2353,-3.2324,-3.2278,-3.2252,-3.2238,-3.2227,-3.221,-3.2206,-3.221,-3.2207,-3.2193,-3.2195,-3.2198,-3.2165,-3.2165,-3.2165,0,0,-3.2681,-3.265,-3.2634,-3.2605,-3.256,-3.2528,-3.2525,-3.2472,-3.2451,-3.242,-3.2385,-3.236,-3.2306,-3.2275,-3.2253,-3.226,-3.2233,-3.225,-3.227,-3.2258,-3.226,-3.2262,-3.2265,-3.2266,-3.225,-3.225,-3.225,0,-3.2706,-3.2668,-3.2628,-3.2605,-3.2583,-3.2541,-3.2524,-3.2497,-3.2443,-3.2429,-3.2418,-3.235,-3.2316,-3.2283,-3.2285,-3.2268,-3.2261,-3.2256,-3.2263,-3.2265,-3.2266,-3.2268,-3.2269,-3.2252,-3.2252,-3.2252,-3.2251,0,-3.2702,-3.2676,-3.2667,-3.2619,-3.2596,-3.2576,-3.2532,-3.2513,-3.2488,-3.2458,-3.2427,-3.2385,-3.2344,-3.2334,-3.2308,-3.2297,-3.2292,-3.2273,-3.2253,-3.2272,-3.2273,-3.2273,-3.2256,-3.2255,-3.2254,-3.2253,0,0,-3.2745,-3.2676,-3.2674,-3.2652,-3.2601,-3.2579,-3.2557,-3.2519,-3.2504,-3.2469,-3.2449,-3.2405,-3.2388,-3.2362,-3.2332,-3.2322,-3.2331,-3.2304,-3.2302,-3.2311,-3.2317,-3.2332,-3.2334,-3.2313,-3.2313,-3.2313,-3.2321,0,-3.2754,-3.2714,-3.2678,-3.2651,-3.2627,-3.2588,-3.2568,-3.2534,-3.2505,-3.248,-3.2447,-3.2417,-3.2396,-3.2381,-3.2368,-3.2333,-3.2332,-3.2331,-3.2294,-3.2293,-3.2307,-3.2334,-3.2349,-3.2358,-3.2321,-3.2321,-3.2321,0,-3.2759,-3.2728,-3.2699,-3.2652,-3.264,-3.2624,-3.2586,-3.2563,-3.2523,-3.2503,-3.2476,-3.2445,-3.242,-3.2404,-3.2367,-3.2368,-3.2351,-3.2331,-3.233,-3.2325,-3.2308,-3.233,-3.236,-3.2362,-3.2321,-3.2321,-3.2321,0,-3.2795,-3.2745,-3.2722,-3.2704,-3.2648,-3.2638,-3.2613,-3.2574,-3.2553,-3.252,-3.2506,-3.247,-3.245,-3.2422,-3.2383,-3.2375,-3.2351,-3.2331,-3.2333,-3.2334,-3.2329,-3.233,-3.2358,-3.2318,-3.2318,-3.2318,-3.2318,0,-3.2809,-3.2793,-3.2738,-3.2723,-3.2704,-3.2663,-3.2644,-3.2616,-3.2582,-3.2561,-3.2524,-3.2505,-3.2454,-3.2428,-3.2397,-3.2372,-3.2363,-3.2345,-3.2337,-3.2349,-3.2351,-3.2336,-3.2335,-3.2318,-3.2318,-3.2318,-3.2318,0,-3.2845,-3.2807,-3.278,-3.2729,-3.2716,-3.2705,-3.2661,-3.2645,-3.2615,-3.2589,-3.258,-3.2532,-3.25,-3.2459,-3.2413,-3.2392,-3.2371,-3.2358,-3.2385,-3.238,-3.2385,-3.2385,-3.2403,-3.2404,-3.2364,-3.2365,-3.2365,0,-3.2857,-3.2844,-3.2793,-3.2778,-3.2755,-3.273,-3.271,-3.2668,-3.2648,-3.2603,-3.2593,-3.2559,-3.253,-3.248,-3.2441,-3.2406,-3.2392,-3.2401,-3.2386,-3.2399,-3.2392,-3.2394,-3.2393,-3.2404,-3.2405,-3.2406,-3.2406,0,-3.2882,-3.2864,-3.2838,-3.2805,-3.2782,-3.2754,-3.2723,-3.2712,-3.2664,-3.2644,-3.2612,-3.2589,-3.2544,-3.2511,-3.2471,-3.2444,-3.2417,-3.2411,-3.241,-3.2421,-3.2438,-3.243,-3.2395,-3.2411,-3.241,-3.241,-3.241,-3.2409,-3.2906,-3.2894,-3.2857,-3.2828,-3.2802,-3.2775,-3.2758,-3.2727,-3.27,-3.2661,-3.2638,-3.2607,-3.2568,-3.2513,-3.2488,-3.2462,-3.2452,-3.2449,-3.2449,-3.2449,-3.2453,-3.2442,-3.2455,-3.2455,-3.2454,-3.2454,-3.2454,0,-3.293,-3.2905,-3.2879,-3.2839,-3.2817,-3.2795,-3.2761,-3.2743,-3.2718,-3.2685,-3.2657,-3.2621,-3.2589,-3.2547,-3.2512,-3.25,-3.2486,-3.2492,-3.2492,-3.2487,-3.2464,-3.2469,-3.2503,-3.2503,-3.2503,-3.2503,-3.2503,-3.2503,-3.294,-3.2918,-3.2896,-3.286,-3.2834,-3.2806,-3.2788,-3.2763,-3.2736,-3.2699,-3.2672,-3.2646,-3.261,-3.2572,-3.2541,-3.2529,-3.2518,-3.2528,-3.2512,-3.2492,-3.2488,-3.2484,-3.2488,-3.2525,-3.2525,-3.2536,-3.2537,-3.2537]}]]